Regional Weather Roundup
Issued by NWS Jackson, KY

Home | Current Version | Previous Version | Text Only | Print | Product List | Glossary Off
Versions: 1 2 3 4 5 6 7 8 9 10 11 12 13 14 15 16 17 18 19 20 21 22 23 24 25 26 27

000
ASUS43 KJKL 181710
RWRJKL

EAST KENTUCKY HOURLY WEATHER ROUNDUP
NATIONAL WEATHER SERVICE JACKSON KY
100 PM EDT FRI AUG 18 2017

NOTE: "FAIR" INDICATES FEW OR NO CLOUDS BELOW 12,000 FEET WITH
NO SIGNIFICANT WEATHER AND/OR OBSTRUCTIONS TO VISIBILITY.

* THESE REPORTS ARE NOT UNDER NWS QUALITY CONTROL AND MAY NOT
  REPORT WEATHER SUCH AS PRECIPITATION AND FOG.

KYZ079-080-083-085-087-088-110-112-115-119-120-181800
...EASTERN KENTUCKY...

CITY           SKY/WX    TMP DP  RH WIND       PRES   REMARKS
JACKSON        MOSUNNY   79  73  82 CALM      29.97S
LONDON         MOSUNNY   81  70  69 W14       29.98F
SOMERSET*      PTSUNNY   79  68  69 W7        29.99S
MONTICELLO*    PTSUNNY   83  71  67 W14G23    30.01S
WILLIAMSBURG*  SUNNY     81  70  69 W7        29.99S
MIDDLESBORO*   PTSUNNY   81  70  68 NW8       29.98F
HARLAN APT*    CLOUDY    72  68  88 CALM      30.01S
PIKE CO APT*   RAIN      74  74 100 CALM      29.97F
BIG SANDY APT* CLOUDY    80  73  80 W6        29.95F
MOREHEAD APT*  PTSUNNY   82  70  65 VRB7G16   29.95S
$$

KYZ035-036-041-042-044-050-067-078-099-181800
...CENTRAL KENTUCKY...

CITY           SKY/WX    TMP DP  RH WIND       PRES   REMARKS
MT STERLING*   MOSUNNY   82  68  61 NW7G17    29.97R
FLEMING/MASON* MOSUNNY   83  66  56 W14       29.94S
DANVILLE*      MOSUNNY   81  63  54 W13G18    29.98S
LEXINGTON      MOSUNNY   81  64  56 W14       29.96S
FRANKFORT      PTSUNNY   83  63  50 W10G17    29.94S
LOUISVILLE     PTSUNNY   85  65  51 W15       29.94S
LEBANON*         N/A     81  64  57 W8G18     29.98S
GLASGOW*       PTSUNNY   82  64  54 W12       29.99S
BOWLING GREEN  MOSUNNY   82  65  56 W12       29.99S
$$

KYZ091>093-OHZ055-061-077-WVZ005-015-034-035-042-181800
...SOUTHERN OHIO/WEST VIRGINIA...

CITY           SKY/WX    TMP DP  RH WIND       PRES   REMARKS
COVINGTON      PTSUNNY   82  66  58 W12G20    29.93S
COLUMBUS       MOSUNNY   82  64  54 W16       29.87S
DAYTON         MOSUNNY   81  63  54 W17G25    29.91S
WILMINGTON     MOSUNNY   81  67  62 W14       29.91S
HUNTINGTON     PTSUNNY   84  71  65 W6        29.90F
CHARLESTON     LGT RAIN  77  72  84 SW8       29.91F
PINEVILLE*     CLOUDY    77  72  84 MISG      30.03S
BECKLEY        CLOUDY    74  68  81 W6        30.01S
BLUEFIELD      LGT RAIN  69  67  93 W8G20     30.05R FOG
LOGAN CO APT*  CLOUDY    79  73  83 W8        29.96F
$$

VAZ002-007-008-TNZ017-027-036-066-071-181800
...SOUTHWEST VIRGINIA/EAST TENNESSEE...

CITY           SKY/WX    TMP DP  RH WIND       PRES   REMARKS
WISE*          CLOUDY    75  68  78 SW9       30.05S
JONESVILLE*    PTSUNNY   77  68  73 NW9G16    30.01R
ABINGDON*      CLOUDY    80  72  77 SW15      30.01F
BRISTOL        PTSUNNY   80  72  76 SW13      29.99F
MORRISTOWN*    CLOUDY    77  75  94 W10       29.99F
SEVIERVILLE*   PTSUNNY   81  72  74 SW9       29.99S
KNOXVILLE      PTSUNNY   82  72  71 SW9       29.98F
LAFOLLETTE*    SUNNY     84  68  58 VRB3G13   30.01F
OAK RIDGE      MOSUNNY   84  69  60 VRB5      29.99F
CROSSVILLE     MOSUNNY   80  66  62 W14       30.05S
NASHVILLE      MOSUNNY   85  65  51 W8        30.00F
$$

...KEY TO REMARKS...
VSB - VISIBILITY IN MILES
WCI - WIND CHILL INDEX
HX  - HEAT INDEX

$$




USA.gov is the U.S. government's official web portal to all federal, state and local government web resources and services.